Weather in Oksino

Russia / Nenets Autonomous Okrug     67°34′59″N   52°10′51″E
temp.,
°C
wind,
m/s
gust,
m/s
humid.,
%
clouds,
%
prec.,
mm/h
press.,
hPa
HPBL,
m
1 march, mon
mon100:00−11ssw699599 0.1 1005181
03:00−8ssw8139599 0.5 1002409
06:00−5ssw91495100 1.3 997653
09:00−4ssw91595100 2.8 992663
12:00−3ssw101595100 2.9 987846
15:000wsw81399100 6.2 985536
18:00+1wnw91494100 0.5 983727
21:00−1w7129298 0.6 984531
2 march, tue
tue200:00−4wsw5109699 0.1 984242
03:00−2wsw589699 0.3 984312
06:00−6wsw469696 0.1 984104
09:00−6wsw469697 0.2 985110
12:00−4w3595100 0.3 986262
15:00−3nw3596100 0.7 988242
18:00−8wnw348698 0.1 98831
21:00−12wsw239066 0.1 98821
3 march, wed
wed300:00−13sw229742 0.0 98820
03:00−14ese129868 0.1 98920
06:00−13ene349798 0.1 98965
09:00−16ne579799 0.1 991178
12:00−16nne5795100 0.1 991233
15:00−16n4795100 0.1 993244
18:00−16nnw4696100 0.1 993164
21:00−16nw359699 0.3 993116
4 march, thu
thu400:00−14nnw349694 0.1 99383
03:00−14nne479594 0.3 993203
06:00−16ne599599 0.2 993262
09:00−17ne61094100 0.3 994356
12:00−17ne6994100 0.1 995405
15:00−18ne61094100 0.1 996387
18:00−20nne51098100 0.0 997218
21:00−22nne5998100 0.1 997178
5 march, fri
fri500:00−24nne599899 0.0 998179
03:00−26n489899 0.0 999132
06:00−26n489897 0.0 999138
09:00−22n589596 0.1 1000317
12:00−20n579494 0.1 1001434
15:00−20n579497 0.1 1003505
18:00−23nnw479792 0.1 1003165
21:00−23nnw489695 0.1 1005213